This demonstration page uses our WeatherBlox Daily Observations layout. Learn more.

Left ArrowRight Arrow

Hourly Observations for February 3, 2020

Temp ( °F °C ) Dew Point ( °F °C ) Humidity (%) Winds ( mph kmh ) Pressure ( in mb ) Visibility ( mi km ) Precip ( " mm )
12:21 am 00:21 Mostly Clear 34 1 30 -1 87 87 NE 25 41 29.74 1007 10 16 0.00 0.00
12:56 am 00:56 Partly Cloudy 32 0 30 -1.1 92 92 NE 23 37 29.67 1005 10 16 0.00 0.00
1:05 am 01:05 Mostly Cloudy 32 0 30 -1 93 93 NE 20 31 29.75 1007 10 16 0.00 0.00
1:24 am 01:24 Cloudy 32 0 30 -1 93 93 NE 23 37 29.74 1007 10 16 0.00 0.00
1:56 am 01:56 Cloudy 32 0 30 -1.1 92 92 NE 24 39 29.65 1004 10 16 0.00 0.00
2:54 am 02:54 Cloudy 32 0 28 -2 87 87 NE 29 46 29.73 1007 10 16 0.00 0.00
2:56 am 02:56 Cloudy 32 0 29 -1.7 88 88 NE 29 46 29.64 1004 10 16 0.00 0.00
3:17 am 03:17 Cloudy 32 0 30 -1 93 93 NE 29 46 29.73 1007 10 16 0.00 0.00
3:56 am 03:56 Cloudy 32 0 29 -1.7 88 88 NNE 32 52 29.65 1004 10 16 0.00 0.00
4:06 am 04:06 Cloudy 30 -1 28 -2 93 93 NE 32 52 29.75 1007 10 16 0.00 0.00
4:56 am 04:56 Cloudy 31 -0.6 28 -2.2 89 89 NNE 29 46 29.68 1005 10 16 0.00 0.00
5:56 am 05:56 Cloudy 31 -0.6 27 -2.8 85 85 NE 32 52 29.71 1006 10 16 0.00 0.00
6:56 am 06:56 Cloudy 30 -1.1 26 -3.3 85 85 NNE 30 48 29.74 1007 10 16 0.00 0.00
7:56 am 07:56 Cloudy 29 -1.7 22 -5.6 75 75 NNE 29 46 29.78 1008 10 16 0.00 0.00
8:03 am 08:03 Cloudy 28 -2 21 -6 74 74 NNE 29 46 29.86 1011 10 16 0.00 0.00
8:56 am 08:56 Cloudy 29 -1.7 18 -7.8 63 63 NNE 28 44 29.80 1009 10 16 0.00 0.00
9:56 am 09:56 Cloudy 30 -1.1 18 -7.8 61 61 NNE 26 43 29.81 1010 10 16 0.00 0.00
10:56 am 10:56 Cloudy 31 -0.6 18 -7.8 59 59 NNE 24 39 29.83 1010 10 16 0.00 0.00
11:56 am 11:56 Cloudy 32 0 18 -7.8 56 56 NNE 30 48 29.84 1011 10 16 0.00 0.00
12:56 pm 12:56 Cloudy 33 0.6 17 -8.3 52 52 NNE 28 44 29.83 1010 10 16 0.00 0.00
1:56 pm 13:56 Cloudy 32 0 17 -8.3 54 54 NNE 28 44 29.84 1011 10 16 0.00 0.00
2:56 pm 14:56 Cloudy 32 0 19 -7.2 59 59 NNE 24 39 29.86 1011 10 16 0.00 0.00
3:56 pm 15:56 Cloudy 31 -0.6 19 -7.2 61 61 NNE 20 31 29.88 1012 10 16 0.00 0.00
4:56 pm 16:56 Cloudy 30 -1.1 18 -7.8 61 61 N 28 44 29.90 1013 10 16 0.00 0.00
5:56 pm 17:56 Cloudy 28 -2.2 19 -7.2 69 69 N 24 39 29.93 1014 10 16 0.00 0.00
6:56 pm 18:56 Cloudy 27 -2.8 18 -7.8 69 69 NNE 25 41 29.95 1014 10 16 0.00 0.00
7:56 pm 19:56 Cloudy 26 -3.3 18 -7.8 71 71 NNE 29 46 29.98 1015 10 16 0.00 0.00
8:56 pm 20:56 Cloudy 26 -3.3 18 -7.8 71 71 NNE 23 37 30.03 1017 10 16 0.00 0.00
9:56 pm 21:56 Cloudy 25 -3.9 18 -7.8 75 75 NNE 21 33 30.05 1018 10 16 0.00 0.00
10:56 pm 22:56 Cloudy 25 -3.9 17 -8.3 72 72 NNE 22 35 30.06 1018 10 16 0.00 0.00
11:56 pm 23:56 Cloudy 24 -4.4 16 -8.9 71 71 NNE 25 41 30.07 1018 10 16 0.00 0.00

Powered by AerisWeather